Regional Weather Roundup
Issued by NWS Charleston, WV

Home | Current Version | Previous Version | Graphics & Text | Print | Product List | Glossary On
Versions: 1 2 3 4 5 6 7 8 9 10 11 12 13 14 15 16 17 18 19 20 21 22 23 24 25 26 27 28 29 30 31 32 33 34 35 36 37 38 39 40 41 42 43 44 45 46 47 48 49 50
000
ASUS41 KRLX 302010
RWRRLX
CRWRWRRLX ALL
West Virginia Regional Weather Roundup
National Weather Service Charleston WV
Issued by National Weather Service Pittsburgh PA
400 PM EDT TUE AUG 30 2016

Note: "fair" indicates few or no clouds below 12,000 feet with no
significant weather and/or obstructions to visibility.

WVZ003-302100-
Northern Panhandle of West Virginia

CITY           SKY/WX    TMP DP  RH WIND       PRES   REMARKS
WHEELING       SUNNY     86  52  30 NE5       30.11F HX  84
$$

WVZ009-302100-
Northwest West Virginia

CITY           SKY/WX    TMP DP  RH WIND       PRES   REMARKS
PARKERSBURG    SUNNY     91  51  25 CALM      30.10F HX  88
$$

WVZ006-302100-
Western West Virginia

CITY           SKY/WX    TMP DP  RH WIND       PRES   REMARKS
HUNTINGTON     MOSUNNY   90  64  42 NE5       30.07F HX  91
$$

WVZ015-302100-
West Central West Virginia

CITY           SKY/WX    TMP DP  RH WIND       PRES   REMARKS
CHARLESTON     MOSUNNY   91  62  37 NE6       30.07F HX  91
$$

WVZ031-302100-
North Central West Virginia

CITY           SKY/WX    TMP DP  RH WIND       PRES   REMARKS
CLARKSBURG     SUNNY     86  56  35 NE7       30.10F HX  85
MORGANTOWN     NOT AVBL
$$

WVZ035-042-302100-
South Central West Virginia

CITY           SKY/WX    TMP DP  RH WIND       PRES   REMARKS
BECKLEY        MOSUNNY   78  66  66 SW7       30.17F HX  80
BLUEFIELD      MOSUNNY   81  62  52 SE3       30.19F HX  82
$$

WVZ045-302100-
Greenbrier Valley of West Virginia

CITY           SKY/WX    TMP DP  RH WIND       PRES   REMARKS
LEWISBURG        N/A     84  64  51 MISG        N/A  HX  86
$$

WVZ047-302100-
Northern Mountains of West Virginia

CITY           SKY/WX    TMP DP  RH WIND       PRES   REMARKS
ELKINS         SUNNY     85  52  32 N10       30.14F HX  83
$$

WVZ052-302100-
Eastern Panhandle of West Virginia

CITY           SKY/WX    TMP DP  RH WIND       PRES   REMARKS
MARTINSBURG    SUNNY     86  61  42 E3        30.08F HX  86
PETERSBURG     SUNNY     92  63  37 N7        30.05F HX  92
$$




USA.gov is the U.S. government's official web portal to all federal, state and local government web resources and services.